Flag for Brazil Weather past 2 weeks in Maceió, Alagoas, Brazil

Now
84 °F

Scattered clouds.


Feels Like: 85 °F
Forecast: 74 / 85 °F
Wind: 12 mph from Southeast

Location: Maceio Aeroporto

Current Time: Mar 31, 2015 at 3:10:46 PM

Latest Report: Mar 31, 2015 at 2:00 PM


Visibility: N/A

Pressure: 29.89 "Hg

Humidity: 48%

Dew point: 63 °F

Location of MaceióLocation

Historic Weather in Maceió — Graph

°F

Maceió temperature yesterday

Maximum temperature yesterday: 82 °F (at 11:00 AM)
Minimum temperature yesterday: 70 °F (at 6:00 AM)
Average temperature yesterday: 76 °F

Past Weeks' High & Low Weather Summary

 TemperatureHumidityPressure
High90 °F (Mar 25, 12:00 PM)100% (Mar 17, 5:00 AM)30.07 "Hg (Mar 17, 5:00 AM)
Low68 °F (Mar 31, 1:00 AM)43% (Mar 24, 3:00 PM)29.83 "Hg (Mar 16, 3:00 PM)
Average79 °F78%29.94 "Hg
* Reported Mar 16 1:00 PM — Mar 31 1:00 PM, Maceió, Weather by CustomWeather, © 2015

Note: Actual official high and low records may vary slightly from our data, if they occured in-between our weather recording intervals... More about our weather records

Advertising

Maceió weather history for previous 24 hours

 ConditionsComfort  
Time TempWeatherWind HumidityBarometerVisibility
1:00 PM
Tue, Mar 31
84 °FScattered clouds.10 mph48%29.92 "HgN/A
12:00 PM84 °FScattered clouds.9 mph48%29.95 "HgN/A
11:00 AM84 °FScattered clouds.12 mph51%29.98 "HgN/A
10:00 AM82 °FScattered clouds.10 mph55%29.98 "HgN/A
9:00 AM79 °FScattered clouds.8 mph65%29.98 "HgN/A
8:00 AM79 °FScattered clouds.2 mph70%29.98 "HgN/A
7:00 AM72 °FScattered clouds.5 mph88%29.98 "HgN/A
6:00 AM68 °FPassing clouds.3 mph100%29.95 "HgN/A
5:00 AM68 °FPassing clouds.3 mph94%29.92 "HgN/A
4:00 AM68 °FPassing clouds.2 mph94%29.92 "HgN/A
3:00 AM68 °FClear.3 mph94%29.92 "Hg10 mi
2:00 AM70 °FClear.2 mph94%29.92 "Hg10 mi
1:00 AM68 °FClear.3 mph100%29.95 "Hg10 mi
12:00 AM70 °FPassing clouds.3 mph94%29.95 "HgN/A
11:00 PM
Mon, Mar 30
70 °FPassing clouds.2 mph94%29.98 "HgN/A
10:00 PM72 °FPassing clouds.No wind88%29.98 "HgN/A
9:00 PM72 °FPassing clouds.2 mph88%29.98 "HgN/A
8:00 PM72 °FPassing clouds.5 mph88%29.95 "HgN/A
7:00 PM72 °FPassing clouds.5 mph88%29.92 "HgN/A
6:00 PM75 °FPassing clouds.7 mph74%29.92 "HgN/A
5:00 PM79 °FPassing clouds.10 mph65%29.89 "HgN/A
4:00 PM81 °FScattered clouds.14 mph58%29.89 "HgN/A
3:00 PM82 °FScattered clouds.13 mph55%29.89 "HgN/A
Weather by CustomWeather, © 2015

See weather overviewHow to use our weather pages